Location: Unspecified
(0.0000°N, 0.0000°E)
Time: 22:01:02
(UTC+00:00)

FENGYUN 1C DEB - Visible Passes

Search period start: 26 February 2024 00:00
Search period end: 07 March 2024 00:00
Orbit: 601 x 842 km, 99.2° (Epoch: 24 February)

Date Brightness Start Highest point End Pass type
(mag) Time Alt. Az. Time Alt. Az. Time Alt. Az.
26 Feb ? 05:02:16 10° S 05:06:49 79° WSW 05:11:41 10° NNW visible
27 Feb ? 04:14:06 10° SE 04:17:44 23° ENE 04:21:31 10° NNE visible
28 Feb ? 05:01:39 10° S 05:06:16 83° WSW 05:11:12 10° NNW visible
29 Feb ? 04:13:32 10° SE 04:17:10 22° ENE 04:20:57 10° NNE visible
01 Mar ? 05:00:59 10° SSE 05:05:40 86° WSW 05:10:41 10° NNW visible
02 Mar ? 04:12:57 10° SE 04:16:34 22° ENE 04:20:22 10° NNE visible
03 Mar ? 05:00:19 10° SSE 05:05:03 90° SW 05:10:09 10° NNW visible
04 Mar ? 04:12:20 10° SE 04:15:58 21° ENE 04:19:44 10° NNE visible
05 Mar ? 04:59:37 10° SSE 05:04:26 87° ENE 05:09:34 10° NNW visible
06 Mar ? 04:11:42 10° ESE 04:15:19 21° ENE 04:19:05 10° NNE visible
